HJ3GNC-16 Weather Reports


time (UTC)temp
C
wind
direction
speed
KPH
gust
KPH
rain 1hr
cm
rain 24hr
cm
rain mn
cm
humidity
%
barometer
mb
20260505093240 25 0 0.0 0.0 0.00 0.00 0.00 88 1013.0
20260505091646 25 0 0.0 0.0 0.00 0.00 0.00 88 1012.0
20260505090104 25 0 0.0 0.0 0.00 0.00 0.00 88 1012.0
20260505084521 25 0 0.0 0.0 0.00 0.00 0.00 88 1012.0
20260505082935 25 0 0.0 0.0 0.00 0.00 0.00 88 1012.0
20260505081348 25 0 0.0 0.0 0.00 0.00 0.00 88 1012.0
20260505075806 25 240 0.0 0.0 0.00 0.00 0.00 88 1012.0
20260505074221 25 240 0.0 0.0 0.00 0.00 0.00 88 1012.0
20260505072637 25 240 0.0 0.0 0.00 0.00 0.00 88 1013.0
20260505071053 25 240 0.0 0.0 0.00 0.00 0.00 88 1013.0
20260505065511 25 0 0.0 0.0 0.00 0.00 0.00 88 1013.0
20260505063927 25 0 0.0 0.0 0.00 0.00 0.00 88 1013.0
20260505062345 25 0 0.0 0.0 0.00 0.00 0.00 88 1013.0
20260505060800 25 0 0.0 0.0 0.00 0.00 0.00 88 1013.0
20260505055216 25 140 0.0 0.0 0.00 0.00 0.00 88 1013.0
20260505053633 25 140 0.0 0.0 0.00 0.00 0.00 88 1013.0
20260505052046 25 140 0.0 0.0 0.00 0.00 0.00 88 1014.0
20260505050502 25 140 0.0 0.0 0.00 0.00 0.00 88 1014.0
20260505041756 25 0 0.0 0.0 0.00 0.00 0.00 88 1014.0
20260505040213 25 0 0.0 0.0 0.00 0.00 0.00 88 1014.0
20260505033026 26 0 0.0 0.0 0.00 0.00 0.00 78 1014.0
20260505031443 26 0 0.0 0.0 0.00 0.00 0.00 78 1013.0
20260505025901 26 0 0.0 0.0 0.00 0.00 0.00 78 1013.0
20260505024314 26 0 0.0 0.0 0.00 0.00 0.00 78 1013.0
20260505022730 26 0 0.0 0.0 0.00 0.00 0.00 78 1013.0
20260505021147 26 0 0.0 0.0 0.00 0.00 0.00 78 1013.0
20260505015601 26 200 0.0 0.0 0.00 0.00 0.00 78 1013.0
20260505014018 26 200 0.0 0.0 0.00 0.00 0.00 78 1013.0
20260505012434 26 200 0.0 0.0 0.00 0.00 0.00 78 1012.0
20260505010849 26 200 0.0 0.0 0.00 0.00 0.00 78 1012.0
20260505005305 26 200 0.0 0.0 0.00 0.00 0.00 78 1012.0
20260505003714 26 200 0.0 0.0 0.00 0.00 0.00 78 1011.0
20260505002105 26 200 0.0 0.0 0.00 0.00 0.00 78 1010.0
20260505000523 26 200 0.0 0.0 0.00 0.00 0.00 78 1010.0
20260504234940 26 190 0.0 0.0 0.00 0.00 0.00 78 1010.0
20260504233401 26 190 0.0 0.0 0.00 0.00 0.00 78 1010.0
20260504231818 26 190 0.0 0.0 0.00 0.00 0.00 78 1009.0
20260504230231 26 170 0.0 0.0 0.00 0.00 0.00 78 1009.0
20260504224649 26 170 0.0 0.0 0.00 0.00 0.00 78 1009.0
20260504223108 26 170 0.0 0.0 0.00 0.00 0.00 78 1009.0
20260504221526 26 170 0.0 0.0 0.00 0.00 0.00 78 1009.0
20260504215942 28 180 0.0 0.0 0.00 0.00 0.00 61 1009.0
20260504214358 28 180 0.0 0.0 0.00 0.00 0.00 61 1009.0
20260504212812 28 180 0.0 0.0 0.00 0.00 0.00 61 1009.0
20260504211229 30 190 0.0 0.0 0.00 0.00 0.00 54 1009.0
20260504205645 31 180 0.0 0.0 0.00 0.00 0.00 55 1009.0
20260504204049 31 180 0.0 0.0 0.00 0.00 0.00 55 1009.0
20260504202504 31 180 0.0 0.0 0.00 0.00 0.00 55 1010.0
20260504200851 31 180 0.0 0.0 0.00 0.00 0.00 55 1010.0
20260504195307 31 190 0.0 0.0 0.00 0.00 0.00 51 1010.0
20260504193725 30 190 0.0 0.0 0.00 0.00 0.00 54 1010.0
20260504192147 30 190 0.0 0.0 0.00 0.00 0.00 54 1010.0
20260504190555 30 190 0.0 0.0 0.00 0.00 0.00 54 1010.0
20260504185014 30 210 0.0 0.0 0.00 0.00 0.00 54 1010.0
20260504183433 30 210 0.0 0.0 0.00 0.00 0.00 54 1010.0
20260504181848 30 210 0.0 0.0 0.00 0.00 0.00 54 1012.0
20260504180306 30 190 0.0 0.0 0.00 0.00 0.00 54 1011.0
20260504174724 30 190 0.0 0.0 0.00 0.00 0.00 54 1011.0
20260504173140 30 190 0.0 0.0 0.00 0.00 0.00 54 1011.0
20260504171555 30 190 0.0 0.0 0.00 0.00 0.00 54 1013.0
20260504151022 25 20 0.0 0.0 0.00 0.00 0.00 73 1014.0
20260504141327 25 350 0.0 0.0 0.00 0.00 0.00 73 1014.0
20260504100454 25 20 0.0 0.0 0.00 0.00 0.00 73 1012.0